Regional Weather Roundup
Issued by NWS Wilmington, NC

Home | Current Version | Previous Version | Text Only | Print | Product List | Glossary On
Versions: 1 2 3 4 5 6 7 8 9 10 11 12 13 14 15 16 17 18 19 20 21 22 23 24 25 26 27 28 29 30 31 32 33 34 35 36 37 38 39 40 41 42 43 44 45 46 47 48 49 50
000
ASUS42 KILM 290810
RWRILM
RWRILM
REGIONAL HOURLY WEATHER ROUNDUP
NATIONAL WEATHER SERVICE WILMINGTON NC
300 AM EST THU JAN 29 2015

NOTE: "FAIR" INDICATES FEW OR NO CLOUDS BELOW 12,000 FEET WITH NO
SIGNIFICANT WEATHER AND/OR OBSTRUCTIONS TO VISIBILITY.

...............WFO WILMINGTON COUNTY WARNING AREA...............

......COASTAL NC AND SC COUNTIES......

CITY           SKY/WX    TMP DP  RH WIND       PRES   REMARKS
WILMINGTON     CLEAR     25  21  85 CALM      30.34S
SOUTHPORT      CLEAR     27  22  82 CALM      30.34S
N MYRTLE BEACH CLEAR     27  22  81 CALM      30.34R
MYRTLE BEACH   CLEAR     28  21  74 CALM      30.36S

......INLAND NC AND SC COUNTIES.......

CITY           SKY/WX    TMP DP  RH WIND       PRES   REMARKS
LUMBERTON      CLEAR     26  22  84 CALM      30.34R
ELIZABETHTOWN  CLEAR     24  20  82 CALM      30.34R
WHITEVILLE     CLEAR     26  22  85 CALM      30.34R
FLORENCE       CLEAR     27  23  85 N3        30.35R
DARLINGTON     CLEAR     27  21  80 CALM      30.36R

....................REST OF NORTH CAROLINA......................

.........EASTERN NC.........

CITY           SKY/WX    TMP DP  RH WIND       PRES   REMARKS
CAPE HATTERAS  CLEAR     34  23  64 VRB6      30.31S WCI  29
JACKSONVILLE   CLEAR     21  18  86 CALM      30.34R
MOREHEAD CITY  CLEAR     28  17  63 N6        30.33F WCI  22
KENANSVILLE    CLEAR     22  21  96 CALM      30.35R
NEW BERN       CLEAR     27  19  72 CALM      30.35F
ELIZABETH CITY CLEAR     24  13  62 W5        30.33F WCI  18

.........CENTRAL NC.........

CITY           SKY/WX    TMP DP  RH WIND       PRES   REMARKS
RALEIGH DURHAM PTCLDY    23  16  74 CALM      30.34R
ROCKY MOUNT    CLEAR     24  18  77 CALM      30.35S
ROANOKE RAPIDS NOT AVBL
FAYETTEVILLE   CLEAR     26  19  74 CALM      30.33S
HOFFMAN        CLEAR     22  20  92 NW2       30.35S

.........WESTERN NC.........

CITY           SKY/WX    TMP DP  RH WIND       PRES   REMARKS
CHARLOTTE      PTCLDY    31  18  58 SE3       30.31F
GREENSBORO     CLEAR     28  16  60 CALM      30.29F
HICKORY        NOT AVBL
BOONE          NOT AVBL
ASHEVILLE      NOT AVBL

.....................REST OF SOUTH CAROLINA.....................

.........EASTERN SC.........

CITY           SKY/WX    TMP DP  RH WIND       PRES   REMARKS
CHARLESTON     CLEAR     29  27  92 CALM      30.34S
BEAUFORT MCAS  CLEAR     31  29  92 CALM      30.34R
HILTON HEAD    CLEAR     34  32  93 N5        30.34S WCI  30

.........CENTRAL SC.........

CITY           SKY/WX    TMP DP  RH WIND       PRES   REMARKS
COLUMBIA       CLEAR     26  22  84 SW3       30.33R
ORANGEBURG     CLEAR     27  23  85 CALM      30.34S
SUMTER SHAW    CLEAR     25  21  83 NE2       30.32S

.........WESTERN SC.........

CITY           SKY/WX    TMP DP  RH WIND       PRES   REMARKS
GREENVILLE     NOT AVBL
ROCK HILL      CLEAR     26  20  77 CALM      30.32S
ANDERSON       CLEAR     30  22  72 CALM      30.30S
CLEMSON        NOT AVBL
GREENWOOD      CLEAR     28  21  75 CALM      30.32S


...................COASTAL AND OFFSHORE REPORTS..................

................LOCAL PIERS AND NC RESERVE................


STATION/POSITION TIME  SKY/WX   TEMP    WIND        PRES    VSBY
                                AIR SEA DIR/SP/G
                 (UTC)          (F)     (DEG/KT/KT) (MB)    (MI)
JOHNY MRCER PIER 0800            35 53  330/  5/  6 1026.5R
NC RESRV MASNBRO 0700            29     280/  1     1027.0F
OCEAN CREST PIER 0800            31 50  340/  4/  5 1026.4F
SPRINGMAID  PIER 0800            31 49  330/  6/  6 1027.4S


................COASTAL AND OFFSHORE BUOYS................


STATION/POSITION TIME  SKY/WX   TEMP    WIND        PRES    VSBY
                                AIR SEA DIR/SP/G
                 (UTC)          (F)     (DEG/KT/KT) (MB)    (MI)
DIMNDSHOAL 41025 0800            40 71  340/ 17/ 19 1025.5F
WVE H/P(F/S)=  6/ 9 WND WVE H/P(F/S)=  3/ 7 SWL H/P/D(F/S/D)=  5/ 20/ 9

CAPE LOOKOUT     0700            37     350/ 11/ 14 1027.0R
ONSLOW BAY 41036 NOT AVBL
5 WRITEBCH 41038 0700            43 52   20/ 10/ 12 1027.1F
MASONBORO  41110 0800               52                N/A
WVE H/P(F/S)=  3/13 WND WVE H/P(F/S)=  2/ 8 SWL H/P/D(F/S/D)=  2/ 90/13

WILM HARBR 41108 0800               53                N/A
WVE H/P(F/S)=  2/ 5 WND WVE H/P(F/S)=  2/ 5

27WRITEBCH 41037 NOT AVBL
FRYING PAN 41013 0800            47 65   20/ 12/ 16 1027.4F
WVE H/P(F/S)=  4/ 6 WND WVE H/P(F/S)=  3/ 5 SWL H/P/D(F/S/D)=  3/ 60/ 6

SUNST NRSH 41024 0700            39      30/  6/  6   N/A
CAPRS NRSH 41029 0700            45      60/  8/ 10   N/A
EDISTO     41004 0800            50 67   40/ 10/ 14 1026.0F
WVE H/P(F/S)=  4/ 6 WND WVE H/P(F/S)=  2/ 5 SWL H/P/D(F/S/D)=  3/ 6



..........OFFSHORE BUOYS BEYOND 100 NM OFFSHORE...........
.....IN A TRIANGLE---HAT TO BERMUDA TO BAHAMAS TO HAT.....


STATION/POSITION TIME  SKY/WX   TEMP    WIND        PRES    VSBY
                                AIR SEA DIR/SP/G
                 (UTC)          (F)     (DEG/KT/KT) (MB)    (MI)
150E HAT   41001 NOT AVBL
W BERMUDA  41048 0746            59 71  330/ 21/ 25 1016.4R
WVE H/P(F/S)= 11/ 9 WND WVE H/P(F/S)=  8/ 5 SWL H/P/D(F/S/D)=  8/300/ 9

ATLANTIC S 41049 0702            74 75  280/ 19/ 23 1013.6
WVE H/P(F/S)= 10/11 WND WVE H/P(F/S)=  7/ 8 SWL H/P/D(F/S/D)=  8/280/11

E BAHAMAS  41046 0748            74 78  330/ 12/ 16 1016.2F
WVE H/P(F/S)=  9/11 WND WVE H/P(F/S)=  2/ 5 SWL H/P/D(F/S/D)=  8/320/11

NE BAHAMAS 41047 0714            65 76  330/ 16/ 23 1018.9R
WVE H/P(F/S)= 11/ 9 WND WVE H/P(F/S)=  7/ 7

120E CANVRL41010 0800            61 75   20/ 16/ 19 1023.8F
WVE H/P(F/S)=  6/ 7 WND WVE H/P(F/S)=  5/ 7 SWL H/P/D(F/S/D)=  5/ 40/13


END



USA.gov is the U.S. government's official web portal to all federal, state and local government web resources and services.